Main page
METAR-TAF:

METAR-TAF

Airports :

Maragheh, Iran

latitude: 37-20-55N, longitude: 046-07-35E, elevation: 1340 m

Current weather observation

The report was made 11 minutes ago, at 21:00 UTC
Wind 8 kt from the East
Temperature 6°C
Humidity 70%
Pressure 1016 hPa
Visibility 10 km or more
no clouds below 1500 m and no cumulonimbus

METAR: OITM 212100Z 09008KT CAVOK 06/01 Q1016

Time: 00:41 (21:11 UTC)


TAF: missing

Weather observations and forecasts of more than 4000 airports (METAR and TAF reports).

The available stations are represented by yellow and red dots on the map.

Hover mouse over dot to see the name of the station.

Then click to see weather observations and forecasts.

To change the map : click on the green buttons with a black cross to zoom in, on the green button with a dash to zoom out, or on the green arrows for adjacent maps.


METAR-TAF: